Regional Weather Roundup
Issued by NWS Bismarck, ND

Home | Current Version | Previous Version | Text Only | Print | Product List | Glossary On
Versions: 1 2 3 4 5 6 7 8 9 10 11 12 13 14 15 16 17 18 19 20 21 22 23 24 25 26 27 28 29 30 31 32 33 34 35 36 37 38 39 40 41 42 43 44 45 46 47 48 49 50
000
ASUS43 KBIS 231402
RWRBIS

NWR BROADCAST TEXT
NATIONAL WEATHER SERVICE BISMARCK ND
900 AM CDT WED AUG 23 2017

NOTE: "FAIR" INDICATES FEW OR NO CLOUDS BELOW 12,000 FEET WITH NO
SIGNIFICANT WEATHER AND/OR OBSTRUCTIONS TO VISIBILITY.


CITY           SKY/WX    TMP DP  RH WIND       PRES   REMARKS
WILLISTON      SUNNY     63  45  51 S6        30.03S
MINOT          SUNNY     65  46  50 SE5       30.02S
MINOT AFB      SUNNY     63  48  58 S7        30.01S
BISMARCK       SUNNY     57  51  80 E5        30.07F
DICKINSON      SUNNY     65  46  50 S14       30.06S
GARRISON         N/A     62  49  62 SE3       30.05S
HETTINGER ARPT SUNNY     61  47  59 SE6       30.08F
JAMESTOWN      SUNNY     57  52  83 S5        30.08F
CARRINGTON     FAIR      61  52  72 CALM      30.10S
HAZEN          FAIR      57  48  72 CALM      30.07S
LINTON         FAIR      57  46  67 E7        30.09F
MANDAN         FAIR      61  48  63 S7        30.07F
RUGBY          FAIR      61  50  67 S7        30.05S
STANLEY        FAIR      61  46  59 CALM      30.06S
TIOGA          FAIR      64  43  45 SW7       30.05S
WATFORD CITY   FAIR      68  45  42 S9G15     30.03S
$$

CITY           SKY/WX    TMP DP  RH WIND       PRES   REMARKS
GRAND FORKS    PTSUNNY   59  52  77 CALM      30.10S
GRAND FORKS AF MOSUNNY   57  50  79 CALM      30.11R
DEVILS LAKE    SUNNY     61  51  70 SE6       30.08F
FARGO          SUNNY     60  52  74 CALM      30.12R
CANDO          PTSUNNY   63  61  94 SE7       30.09S
CAVALIER       FAIR      57  52  82 CALM      30.11R
GRAFTON        PTSUNNY   55  54  94 E6        30.12S
GWINNER        SUNNY     57  54  88 CALM      30.11S
LANGDON        PTSUNNY   59  57  94 SE6       30.10S
ROLLA          FAIR      50  50 100 CALM      30.07S
WALHALLA       FAIR      57  57 100 CALM      30.10S
$$

CITY           SKY/WX    TMP DP  RH WIND       PRES   REMARKS
ABERDEEN       SUNNY     57  53  86 S6        30.10F
MOBRIDGE       SUNNY     66  50  56 SE8       30.05F
BUFFALO          N/A     59  49  69 NE3       30.01F
RAPID CITY     SUNNY     66  52  60 N6        30.06S
GLASGOW        SUNNY     63  40  42 E9        30.00R
SIDNEY         SUNNY     59  47  64 S5        30.04S
WOLF POINT     SUNNY     61  39  44 CALM      30.01S
GLENDIVE       SUNNY     66  45  46 S7        30.05S
MILES CITY     SUNNY     62  43  49 N5        30.02R
BAKER          SUNNY     60  45  57 SE13      30.08S
$$

CITY           SKY/WX    TMP DP  RH WIND       PRES   REMARKS
BILLINGS       MOSUNNY   59  36  42 SW13      30.06R
GREAT FALLS    SUNNY     59  35  40 SW6       30.04R
$$





USA.gov is the U.S. government's official web portal to all federal, state and local government web resources and services.